Regional Weather Roundup
Issued by NWS

Home | Current Version | Previous Version | Text Only | Print | Product List | Glossary On
Versions: 1 2 3 4 5 6 7 8 9 10 11 12 13 14 15 16 17 18 19 20 21 22 23 24 25 26 27 28 29 30 31 32 33 34 35 36 37 38 39 40 41 42 43 44 45 46 47 48 49 50
000
ASUS44 KJAN 181803
RWRMS

MISSISSIPPI HOURLY WEATHER ROUNDUP
NATIONAL WEATHER SERVICE JACKSON MS
100 PM CDT THU SEP 18 2014

NOTE: "FAIR: INDICATES FEW OR NO CLOUDS BELOW 12,000 FEET WITH NO
SIGNIFICANT WEATHER AND/OR OBSTRUCTIONS TO VISIBILITY.

MSZ001>002-007>008-010>013-018>021-025>028-034>036-181900-
NORTHWEST MISSISSIPPI

CITY           SKY/WX    TMP DP  RH WIND       PRES   REMARKS
CLARKSDALE     FAIR      84  72  65 CALM      29.94S
CLEVELAND      CLOUDY    89  71  54 CALM      29.91F HX  94
GREENWOOD      MOSUNNY   88  68  51 CALM      29.92F HX  91
6HR MIN TEMP:  70; 6HR MAX TEMP:  90;

GREENVILLE     MOSUNNY   89  68  49 SW8       29.91F HX  93
6HR MIN TEMP:  72; 6HR MAX TEMP:  89;

GRENADA        FAIR      88  70  55 CALM      29.94F HX  92
OLIVE BRANCH   PTSUNNY   79  72  78 CALM      29.97S
OXFORD         FAIR      79  64  61 S7        29.98F
TUNICA         PTCLDY    82  70  65 NW5       29.95S
$$

MSZ003>006-009-014>017-022>024-029>033-037>039-181900-
NORTHEAST MISSISSIPPI

CITY           SKY/WX    TMP DP  RH WIND       PRES   REMARKS
COLUMBUS AFB   NOT AVBL
CORINTH        FAIR      82  64  54 E7        29.97F
GOLDN TRIANGLE MOSUNNY   84  63  48 E5        29.97F
STARKVILLE     FAIR      82  66  57 CALM      29.95F
TUPELO         PTSUNNY   80  59  48 VRB6      29.97F
6HR MIN TEMP:  67; 6HR MAX TEMP:  80;

$$

MSZ040-058-181900-
CENTRAL MISSISSIPPI

CITY           SKY/WX    TMP DP  RH WIND       PRES   REMARKS
JACKSON INTL   PTSUNNY   88  71  57 VRB3      29.94F HX  94
6HR MIN TEMP:  69; 6HR MAX TEMP:  88;

JACKSON HAWKNS PTSUNNY   88  70  55 CALM      29.94F HX  93
6HR MIN TEMP:  72; 6HR MAX TEMP:  88;

MERIDIAN KEY   CLOUDY    87  66  49 SW3       29.94F
6HR MIN TEMP:  66; 6HR MAX TEMP:  89;

MERIDIAN NAS   PTSUNNY   85  66  53 S5        29.95F
6HR MIN TEMP:  65; 6HR MAX TEMP:  86;

RAYMOND        FAIR      86  81  84 N3        29.94F HX 102
VICKSBURG      CLOUDY    87  71  58 NE8       29.93S HX  93
6HR MIN TEMP:  71; 6HR MAX TEMP:  88;

$$

MSZ059>079-181900-
SOUTH MISSISSIPPI

CITY           SKY/WX    TMP DP  RH WIND       PRES   REMARKS
BROOKHAVEN     FAIR      84  73  70 CALM      29.96F HX  91
COLUMBIA       FAIR      84  73  70 CALM      29.92F HX  91
HATTIESBURG    CLOUDY    86  73  65 NE5       29.94F HX  93
6HR MIN TEMP:  71; 6HR MAX TEMP:  87;

MCCOMB         CLOUDY    82  73  74 CALM      29.94F
6HR MIN TEMP:  72; 6HR MAX TEMP:  82;

NATCHEZ        CLOUDY    82  73  74 SE6       29.95S
6HR MIN TEMP:  72; 6HR MAX TEMP:  82;

PINE BELT      CLOUDY    82  70  65 E3        29.96S
6HR MIN TEMP:  68; 6HR MAX TEMP:  82;

$$

MSZ080>082-181900-
COASTAL MISSISSIPPI

CITY           SKY/WX    TMP DP  RH WIND       PRES   REMARKS
BAY ST LOUIS   MOSUNNY   86  68  54 S8        29.92F
BILOXI         NOT AVBL
PASCAGOULA     PTSUNNY   88  71  57 S6        29.92F HX  94
6HR MIN TEMP:  70; 6HR MAX TEMP:  88;

GULFPORT       CLOUDY    86  72  62 SE8       29.92S HX  92
6HR MIN TEMP:  73; 6HR MAX TEMP:  88;

$$



USA.gov is the U.S. government's official web portal to all federal, state and local government web resources and services.